| time (UTC) | temp F | wind direction | speed knots | gust knots | rain 1hr in | rain 24hr in | rain mn in | humidity % | barometer mb |
| 20260903231025 | 71 | 127 | 0.0 | 0.9 | 0.00 | 0.31 | 0.31 | 94 | 1011.3 |
| 20260903230520 | 71 | 0.0 | 0.9 | 0.00 | 0.31 | 0.31 | 93 | 1011.1 | |
| 20260903230022 | 72 | 127 | 0.9 | 2.6 | 0.00 | 0.31 | 0.31 | 91 | 1011.1 |
| 20260903225521 | 71 | 111 | 0.0 | 2.6 | 0.00 | 0.31 | 0.31 | 93 | 1011.1 |
| 20260903225021 | 72 | 0.0 | 0.0 | 0.00 | 0.31 | 0.31 | 93 | 1011.1 | |
| 20260903224521 | 72 | 162 | 0.0 | 0.9 | 0.00 | 0.31 | 0.31 | 91 | 1011.0 |
| 20260903224021 | 71 | 170 | 0.0 | 1.7 | 0.00 | 0.31 | 0.31 | 93 | 1011.1 |
| 20260903223600 | 71 | 182 | 0.0 | 0.9 | 0.00 | 0.31 | 0.31 | 94 | 1011.3 |
| 20260903223022 | 71 | 0.0 | 0.0 | 0.00 | 0.31 | 0.31 | 93 | 1011.3 | |
| 20260903222522 | 72 | 0.0 | 0.0 | 0.00 | 0.31 | 0.31 | 93 | 1011.5 | |
| 20260903222021 | 72 | 0.0 | 0.0 | 0.00 | 0.31 | 0.31 | 93 | 1011.6 | |
| 20260903221521 | 72 | 0.0 | 0.0 | 0.00 | 0.31 | 0.31 | 92 | 1011.5 | |
| 20260903221041 | 73 | 182 | 0.0 | 0.9 | 0.00 | 0.31 | 0.31 | 90 | 1011.5 |
| 20260903220521 | 73 | 182 | 0.9 | 1.7 | 0.00 | 0.31 | 0.31 | 87 | 1011.4 |
| 20260903220021 | 73 | 155 | 0.9 | 1.7 | 0.00 | 0.31 | 0.31 | 89 | 1011.5 |
| 20260903215520 | 73 | 0.0 | 0.0 | 0.00 | 0.31 | 0.31 | 90 | 1011.6 | |
| 20260903215022 | 73 | 164 | 0.0 | 0.9 | 0.00 | 0.31 | 0.31 | 88 | 1011.5 |
| 20260903214522 | 74 | 163 | 0.0 | 1.7 | 0.00 | 0.31 | 0.31 | 84 | 1011.3 |
| 20260903214022 | 74 | 131 | 0.9 | 2.6 | 0.00 | 0.31 | 0.31 | 85 | 1011.4 |
| 20260903213521 | 73 | 111 | 1.7 | 3.5 | 0.00 | 0.31 | 0.31 | 87 | 1011.3 |
| 20260903213021 | 73 | 164 | 0.9 | 2.6 | 0.00 | 0.31 | 0.31 | 89 | 1011.4 |
| 20260903212541 | 73 | 0.0 | 0.0 | 0.00 | 0.31 | 0.31 | 88 | 1011.3 | |
| 20260903212021 | 74 | 201 | 0.0 | 0.9 | 0.00 | 0.31 | 0.31 | 87 | 1011.3 |
| 20260903211520 | 74 | 201 | 0.0 | 0.9 | 0.00 | 0.31 | 0.31 | 85 | 1011.4 |
| 20260903211020 | 74 | 192 | 0.9 | 3.5 | 0.00 | 0.31 | 0.31 | 84 | 1011.6 |
| 20260903210522 | 74 | 174 | 0.9 | 3.5 | 0.00 | 0.31 | 0.31 | 85 | 1011.4 |
| 20260903210021 | 74 | 162 | 0.0 | 1.7 | 0.00 | 0.31 | 0.31 | 84 | 1011.4 |
| 20260903205521 | 74 | 156 | 0.9 | 1.7 | 0.00 | 0.31 | 0.31 | 84 | 1011.4 |
| 20260903205042 | 74 | 152 | 0.9 | 2.6 | 0.00 | 0.31 | 0.31 | 84 | 1011.4 |
| 20260903204521 | 74 | 148 | 0.0 | 0.9 | 0.00 | 0.31 | 0.31 | 83 | 1011.4 |
| 20260903204020 | 74 | 105 | 0.0 | 0.9 | 0.00 | 0.31 | 0.31 | 83 | 1011.4 |
| 20260903203520 | 75 | 67 | 0.0 | 1.7 | 0.00 | 0.31 | 0.31 | 82 | 1011.5 |
| 20260903203020 | 75 | 70 | 0.9 | 2.6 | 0.00 | 0.31 | 0.31 | 81 | 1011.5 |
| 20260903202543 | 75 | 130 | 1.7 | 5.2 | 0.00 | 0.31 | 0.31 | 80 | 1011.4 |
| 20260903202022 | 75 | 115 | 1.7 | 3.5 | 0.00 | 0.31 | 0.31 | 81 | 1011.6 |
| 20260903201520 | 75 | 115 | 0.9 | 3.5 | 0.00 | 0.31 | 0.31 | 82 | 1011.7 |
| 20260903201021 | 74 | 141 | 0.9 | 2.6 | 0.00 | 0.31 | 0.31 | 83 | 1011.7 |
| 20260903200541 | 74 | 83 | 0.9 | 2.6 | 0.00 | 0.31 | 0.31 | 82 | 1011.8 |
| 20260903200021 | 74 | 63 | 0.9 | 1.7 | 0.00 | 0.31 | 0.31 | 82 | 1011.7 |
| 20260903195521 | 74 | 77 | 0.9 | 2.6 | 0.00 | 0.31 | 0.31 | 81 | 1011.9 |
| 20260903195020 | 74 | 101 | 1.7 | 3.5 | 0.00 | 0.31 | 0.31 | 82 | 1012.0 |
| 20260903194520 | 74 | 109 | 0.0 | 0.9 | 0.00 | 0.31 | 0.31 | 82 | 1012.1 |
| 20260903194022 | 74 | 100 | 0.9 | 3.5 | 0.00 | 0.31 | 0.31 | 82 | 1012.0 |
| 20260903193522 | 74 | 108 | 0.9 | 3.5 | 0.00 | 0.31 | 0.31 | 82 | 1012.1 |
| 20260903193021 | 74 | 108 | 0.9 | 3.5 | 0.00 | 0.31 | 0.31 | 82 | 1012.1 |
| 20260903192521 | 74 | 116 | 0.9 | 3.5 | 0.00 | 0.31 | 0.31 | 82 | 1012.2 |
| 20260903192021 | 74 | 111 | 1.7 | 3.5 | 0.00 | 0.31 | 0.31 | 83 | 1012.2 |
| 20260903191521 | 73 | 102 | 0.9 | 3.5 | 0.00 | 0.31 | 0.31 | 84 | 1012.2 |
| 20260903191021 | 73 | 119 | 0.9 | 2.6 | 0.00 | 0.31 | 0.31 | 85 | 1012.3 |
| 20260903190520 | 73 | 97 | 0.9 | 2.6 | 0.00 | 0.31 | 0.31 | 85 | 1012.3 |
| 20260903190020 | 72 | 97 | 1.7 | 2.6 | 0.00 | 0.31 | 0.31 | 86 | 1012.3 |
| 20260903185522 | 72 | 82 | 0.9 | 2.6 | 0.00 | 0.31 | 0.31 | 87 | 1012.3 |
| 20260903185022 | 72 | 76 | 1.7 | 3.5 | 0.00 | 0.31 | 0.31 | 86 | 1012.5 |
| 20260903184521 | 72 | 98 | 0.0 | 2.6 | 0.00 | 0.31 | 0.31 | 88 | 1012.6 |
| 20260903184021 | 72 | 97 | 0.0 | 1.7 | 0.00 | 0.31 | 0.31 | 87 | 1012.7 |
| 20260903183521 | 72 | 74 | 0.0 | 1.7 | 0.00 | 0.31 | 0.31 | 88 | 1012.8 |
| 20260903183026 | 72 | 60 | 0.9 | 1.7 | 0.00 | 0.31 | 0.31 | 88 | 1012.8 |
| 20260903182520 | 72 | 45 | 0.0 | 0.9 | 0.00 | 0.31 | 0.31 | 86 | 1012.9 |
| 20260903182041 | 71 | 37 | 0.0 | 0.9 | 0.00 | 0.31 | 0.31 | 87 | 1012.9 |
| 20260903181520 | 71 | 60 | 0.0 | 0.9 | 0.00 | 0.31 | 0.31 | 87 | 1013.0 |
| 20260903181042 | 72 | 61 | 0.0 | 1.7 | 0.00 | 0.31 | 0.31 | 86 | 1012.9 |
| 20260903180522 | 72 | 3 | 0.0 | 1.7 | 0.00 | 0.31 | 0.31 | 86 | 1012.9 |
| 20260903180021 | 72 | 42 | 0.0 | 1.7 | 0.00 | 0.31 | 0.31 | 86 | 1013.0 |
| 20260903175521 | 72 | 323 | 0.0 | 0.9 | 0.00 | 0.31 | 0.31 | 87 | 1013.1 |
| 20260903175021 | 72 | 39 | 0.0 | 0.9 | 0.00 | 0.31 | 0.31 | 86 | 1013.1 |
| 20260903174546 | 71 | 6 | 0.0 | 0.9 | 0.00 | 0.31 | 0.31 | 88 | 1013.1 |
| 20260903174020 | 71 | 60 | 0.9 | 2.6 | 0.00 | 0.31 | 0.31 | 87 | 1013.1 |
| 20260903173520 | 71 | 281 | 0.9 | 1.7 | 0.00 | 0.31 | 0.31 | 89 | 1013.3 |
| 20260903173022 | 71 | 82 | 0.0 | 0.9 | 0.00 | 0.31 | 0.31 | 88 | 1013.1 |
| 20260903172522 | 70 | 61 | 0.0 | 0.9 | 0.00 | 0.31 | 0.31 | 88 | 1013.2 |
| 20260903172022 | 70 | 0.0 | 0.0 | 0.00 | 0.31 | 0.31 | 90 | 1013.1 | |
| 20260903171521 | 70 | 66 | 0.0 | 2.6 | 0.00 | 0.31 | 0.31 | 89 | 1013.1 |
| 20260903171021 | 70 | 347 | 0.9 | 2.6 | 0.00 | 0.31 | 0.31 | 89 | 1013.0 |
| 20260903170521 | 70 | 37 | 0.0 | 0.9 | 0.00 | 0.31 | 0.31 | 90 | 1013.1 |
| 20260903170020 | 70 | 38 | 0.0 | 1.7 | 0.00 | 0.31 | 0.31 | 90 | 1013.2 |
| 20260903165520 | 70 | 37 | 0.0 | 1.7 | 0.00 | 0.31 | 0.31 | 90 | 1013.1 |
| 20260903165022 | 70 | 38 | 0.0 | 0.9 | 0.00 | 0.31 | 0.31 | 92 | 1013.0 |
| 20260903164602 | 69 | 38 | 0.0 | 0.9 | 0.00 | 0.31 | 0.31 | 92 | 1013.0 |
| 20260903163521 | 69 | 37 | 0.0 | 0.9 | 0.00 | 0.31 | 0.31 | 91 | 1012.9 |
| 20260903163041 | 70 | 38 | 0.0 | 1.7 | 0.00 | 0.31 | 0.31 | 91 | 1012.8 |
| 20260903162521 | 69 | 261 | 0.0 | 2.6 | 0.00 | 0.31 | 0.31 | 93 | 1012.9 |
| 20260903162041 | 69 | 258 | 0.0 | 2.6 | 0.00 | 0.31 | 0.31 | 92 | 1013.0 |
| 20260903161520 | 69 | 222 | 0.0 | 0.9 | 0.00 | 0.31 | 0.31 | 91 | 1013.0 |
| 20260903161020 | 69 | 223 | 0.0 | 0.9 | 0.00 | 0.31 | 0.31 | 93 | 1012.9 |
| 20260903160542 | 69 | 223 | 0.0 | 0.9 | 0.00 | 0.31 | 0.31 | 94 | 1013.1 |
| 20260903160042 | 69 | 223 | 0.0 | 0.9 | 0.00 | 0.31 | 0.31 | 93 | 1013.1 |
| 20260903155542 | 68 | 223 | 0.0 | 0.9 | 0.00 | 0.31 | 0.31 | 94 | 1013.1 |
| 20260903155041 | 68 | 111 | 0.9 | 1.7 | 0.00 | 0.31 | 0.31 | 94 | 1013.2 |
| 20260903154521 | 68 | 87 | 0.9 | 1.7 | 0.00 | 0.31 | 0.31 | 94 | 1013.3 |
| 20260903154021 | 68 | 131 | 0.0 | 0.9 | 0.00 | 0.31 | 0.31 | 95 | 1013.5 |
| 20260903153541 | 67 | 131 | 0.0 | 0.9 | 0.00 | 0.31 | 0.31 | 95 | 1013.6 |
| 20260903153020 | 67 | 131 | 0.0 | 0.9 | 0.00 | 0.31 | 0.31 | 95 | 1013.6 |
| 20260903152520 | 67 | 131 | 0.0 | 0.9 | 0.00 | 0.31 | 0.31 | 96 | 1013.6 |
| 20260903152020 | 67 | 0.0 | 0.0 | 0.00 | 0.31 | 0.31 | 97 | 1013.8 | |
| 20260903151520 | 67 | 0.0 | 0.0 | 0.00 | 0.31 | 0.31 | 97 | 1013.6 | |
| 20260903151020 | 67 | 0.0 | 0.9 | 0.00 | 0.31 | 0.31 | 97 | 1013.7 | |
| 20260903150600 | 67 | 131 | 0.0 | 0.9 | 0.00 | 0.31 | 0.31 | 98 | 1013.7 |
| 20260903150040 | 66 | 154 | 0.0 | 1.7 | 0.00 | 0.31 | 0.31 | 97 | 1013.8 |
| 20260903145521 | 66 | 160 | 0.0 | 0.9 | 0.00 | 0.31 | 0.31 | 98 | 1013.8 |
| 20260903145021 | 66 | 159 | 0.0 | 0.9 | 0.00 | 0.31 | 0.31 | 97 | 1013.9 |
| 20260903144546 | 66 | 161 | 0.0 | 0.9 | 0.00 | 0.31 | 0.31 | 97 | 1013.9 |
| 20260903144020 | 66 | 161 | 0.0 | 0.9 | 0.00 | 0.31 | 0.31 | 97 | 1014.0 |
| 20260903143520 | 66 | 166 | 0.0 | 1.7 | 0.00 | 0.31 | 0.31 | 98 | 1013.9 |
| 20260903143020 | 66 | 170 | 0.0 | 1.7 | 0.00 | 0.31 | 0.31 | 98 | 1013.9 |
| 20260903142520 | 66 | 172 | 0.9 | 2.6 | 0.00 | 0.31 | 0.31 | 98 | 1013.9 |
| 20260903142019 | 66 | 230 | 0.9 | 2.6 | 0.00 | 0.31 | 0.31 | 98 | 1013.9 |
| 20260903141559 | 66 | 281 | 0.0 | 1.7 | 0.00 | 0.31 | 0.31 | 99 | 1014.0 |
| 20260903141046 | 65 | 226 | 0.0 | 1.7 | 0.00 | 0.31 | 0.31 | 99 | 1014.3 |
| 20260903140521 | 65 | 209 | 0.0 | 1.7 | 0.00 | 0.31 | 0.31 | 99 | 1014.3 |
| 20260903140020 | 65 | 205 | 0.0 | 5.2 | 0.00 | 0.31 | 0.31 | 99 | 1014.4 |
| 20260903135520 | 65 | 240 | 0.0 | 5.2 | 0.00 | 0.31 | 0.31 | 99 | 1014.5 |
| 20260903135040 | 65 | 280 | 0.0 | 1.7 | 0.00 | 0.31 | 0.31 | 99 | 1014.4 |
| 20260903134522 | 64 | 242 | 0.0 | 0.9 | 0.00 | 0.31 | 0.31 | 99 | 1014.4 |
| 20260903134022 | 64 | 187 | 0.0 | 1.7 | 0.00 | 0.31 | 0.31 | 99 | 1014.4 |
| 20260903133522 | 64 | 187 | 0.9 | 2.6 | 0.00 | 0.31 | 0.31 | 99 | 1014.4 |
| 20260903133021 | 64 | 143 | 0.9 | 2.6 | 0.00 | 0.31 | 0.31 | 99 | 1014.3 |
| 20260903132521 | 64 | 93 | 0.0 | 0.9 | 0.00 | 0.31 | 0.31 | 99 | 1014.4 |
| 20260903132021 | 64 | 88 | 0.0 | 1.7 | 0.00 | 0.31 | 0.31 | 99 | 1014.4 |
| 20260903131520 | 64 | 88 | 0.0 | 0.9 | 0.00 | 0.31 | 0.31 | 99 | 1014.4 |
| 20260903131020 | 64 | 88 | 0.0 | 0.9 | 0.00 | 0.31 | 0.31 | 99 | 1014.4 |
| 20260903130520 | 64 | 88 | 0.0 | 0.9 | 0.00 | 0.31 | 0.31 | 99 | 1014.3 |
| 20260903130021 | 64 | 88 | 0.0 | 0.9 | 0.00 | 0.31 | 0.31 | 99 | 1014.3 |
| 20260903125542 | 64 | 0.0 | 0.0 | 0.00 | 0.31 | 0.31 | 99 | 1014.5 | |
| 20260903125021 | 63 | 0.0 | 0.0 | 0.00 | 0.31 | 0.31 | 99 | 1014.4 | |
| 20260903124521 | 63 | 0.0 | 0.0 | 0.00 | 0.31 | 0.31 | 99 | 1014.6 | |
| 20260903124021 | 63 | 0.0 | 0.0 | 0.00 | 0.31 | 0.31 | 99 | 1014.6 | |
| 20260903123521 | 63 | 0.0 | 0.0 | 0.00 | 0.31 | 0.31 | 99 | 1014.8 | |
| 20260903123020 | 63 | 0.0 | 0.0 | 0.00 | 0.31 | 0.31 | 99 | 1014.8 | |
| 20260903122520 | 63 | 0.0 | 0.0 | 0.00 | 0.31 | 0.31 | 99 | 1014.9 | |
| 20260903122020 | 63 | 0.0 | 0.0 | 0.00 | 0.31 | 0.31 | 99 | 1014.9 | |
| 20260903121520 | 63 | 0.0 | 0.0 | 0.01 | 0.31 | 0.31 | 99 | 1014.9 | |
| 20260903121022 | 63 | 0.0 | 0.0 | 0.01 | 0.31 | 0.31 | 99 | 1014.9 | |
| 20260903120521 | 63 | 88 | 0.0 | 0.9 | 0.01 | 0.31 | 0.31 | 99 | 1014.9 |
| 20260903120021 | 63 | 88 | 0.0 | 0.9 | 0.02 | 0.31 | 0.31 | 99 | 1015.1 |
| 20260903115521 | 63 | 87 | 0.0 | 0.9 | 0.02 | 0.31 | 0.31 | 99 | 1015.2 |
| 20260903115041 | 63 | 87 | 0.0 | 0.9 | 0.03 | 0.31 | 0.31 | 99 | 1015.3 |
| 20260903114541 | 63 | 0.0 | 0.0 | 0.03 | 0.31 | 0.31 | 99 | 1015.3 | |
| 20260903114020 | 62 | 0.0 | 0.0 | 0.04 | 0.31 | 0.31 | 99 | 1015.3 | |
| 20260903113520 | 62 | 0.0 | 0.0 | 0.05 | 0.31 | 0.31 | 99 | 1015.2 | |
| 20260903113042 | 62 | 0.0 | 0.0 | 0.05 | 0.31 | 0.31 | 99 | 1015.4 | |
| 20260903112541 | 62 | 0.0 | 0.0 | 0.07 | 0.31 | 0.31 | 99 | 1015.2 | |
| 20260903112021 | 62 | 0.0 | 0.0 | 0.08 | 0.31 | 0.31 | 99 | 1015.3 | |
| 20260903111521 | 62 | 0.0 | 0.0 | 0.09 | 0.30 | 0.30 | 99 | 1015.4 | |
| 20260903111021 | 62 | 0.0 | 0.0 | 0.10 | 0.30 | 0.30 | 99 | 1015.3 | |
| 20260903110520 | 62 | 0.0 | 0.0 | 0.10 | 0.30 | 0.30 | 99 | 1015.2 | |
| 20260903110020 | 62 | 0.0 | 0.0 | 0.10 | 0.30 | 0.30 | 99 | 1015.2 | |
| 20260903105522 | 62 | 0.0 | 0.0 | 0.09 | 0.29 | 0.29 | 99 | 1015.3 | |
| 20260903105022 | 62 | 0.0 | 1.7 | 0.09 | 0.28 | 0.28 | 99 | 1015.3 | |
| 20260903104521 | 62 | 111 | 0.0 | 1.7 | 0.09 | 0.28 | 0.28 | 99 | 1015.5 |
| 20260903104202 | 62 | 0.0 | 0.0 | 0.09 | 0.27 | 0.27 | 99 | 1015.3 | |
| 20260903103521 | 62 | 0.0 | 0.0 | 0.08 | 0.26 | 0.26 | 99 | 1015.0 | |
| 20260903103021 | 62 | 0.0 | 0.0 | 0.07 | 0.26 | 0.26 | 99 | 1015.0 | |
| 20260903102520 | 62 | 0.0 | 0.0 | 0.05 | 0.24 | 0.24 | 99 | 1014.9 | |
| 20260903102040 | 62 | 0.0 | 0.0 | 0.04 | 0.23 | 0.23 | 99 | 1014.9 | |
| 20260903101520 | 62 | 0.0 | 0.0 | 0.02 | 0.21 | 0.21 | 99 | 1015.0 | |
| 20260903101022 | 62 | 0.0 | 0.0 | 0.02 | 0.21 | 0.21 | 99 | 1014.9 | |
| 20260903100522 | 62 | 0.0 | 0.0 | 0.02 | 0.20 | 0.20 | 99 | 1014.9 | |
| 20260903100041 | 62 | 127 | 0.0 | 0.9 | 0.01 | 0.20 | 0.20 | 99 | 1015.0 |
| 20260903095521 | 62 | 0.0 | 0.0 | 0.01 | 0.20 | 0.20 | 99 | 1015.0 | |
| 20260903095021 | 62 | 0.0 | 0.0 | 0.00 | 0.19 | 0.19 | 98 | 1015.1 | |
| 20260903094521 | 62 | 0.0 | 0.0 | 0.00 | 0.19 | 0.19 | 98 | 1015.2 | |
| 20260903094021 | 62 | 0.0 | 0.9 | 0.00 | 0.19 | 0.19 | 98 | 1015.2 | |
| 20260903093521 | 62 | 127 | 0.0 | 0.9 | 0.04 | 0.19 | 0.19 | 98 | 1015.2 |
| 20260903093022 | 62 | 127 | 0.0 | 1.7 | 0.05 | 0.19 | 0.19 | 98 | 1015.0 |
| 20260903092522 | 62 | 127 | 0.9 | 1.7 | 0.09 | 0.19 | 0.19 | 98 | 1015.3 |
| 20260903092042 | 62 | 0.0 | 0.0 | 0.10 | 0.19 | 0.19 | 97 | 1015.4 | |
| 20260903091521 | 62 | 0.0 | 0.9 | 0.15 | 0.19 | 0.19 | 97 | 1015.5 | |
| 20260903091021 | 62 | 127 | 0.0 | 0.9 | 0.19 | 0.19 | 0.19 | 97 | 1015.4 |
| 20260903090521 | 62 | 128 | 0.0 | 1.7 | 0.19 | 0.19 | 0.19 | 96 | 1015.5 |
| 20260903090021 | 62 | 128 | 0.9 | 3.5 | 0.19 | 0.19 | 0.19 | 96 | 1015.4 |
| 20260903085520 | 62 | 117 | 0.9 | 3.5 | 0.19 | 0.19 | 0.19 | 96 | 1015.4 |
| 20260903085020 | 62 | 155 | 0.9 | 2.6 | 0.19 | 0.19 | 0.19 | 95 | 1015.6 |
| 20260903084540 | 62 | 0.0 | 0.0 | 0.19 | 0.19 | 0.19 | 95 | 1015.7 | |
| 20260903084019 | 62 | 0.0 | 0.0 | 0.18 | 0.18 | 0.18 | 94 | 1015.6 | |
| 20260903083519 | 63 | 174 | 0.0 | 0.9 | 0.15 | 0.15 | 0.15 | 92 | 1015.8 |
| 20260903083021 | 63 | 0.0 | 1.7 | 0.13 | 0.13 | 0.13 | 91 | 1015.8 | |
| 20260903082521 | 64 | 150 | 0.9 | 5.2 | 0.10 | 0.10 | 0.10 | 89 | 1015.8 |
| 20260903082041 | 64 | 132 | 0.9 | 5.2 | 0.09 | 0.09 | 0.09 | 85 | 1015.9 |
| 20260903081520 | 65 | 140 | 1.7 | 3.5 | 0.04 | 0.04 | 0.04 | 82 | 1015.9 |
| 20260903081020 | 65 | 132 | 2.6 | 7.0 | 0.00 | 0.00 | 0.00 | 80 | 1015.8 |
| 20260903080522 | 65 | 142 | 0.9 | 5.2 | 0.00 | 0.00 | 0.00 | 80 | 1015.9 |
| 20260903080022 | 65 | 182 | 1.7 | 6.1 | 0.00 | 0.00 | 0.00 | 79 | 1015.8 |
| 20260903075522 | 65 | 128 | 2.6 | 6.1 | 0.00 | 0.00 | 0.00 | 79 | 1015.8 |
| 20260903075021 | 65 | 123 | 1.7 | 5.2 | 0.00 | 0.00 | 0.00 | 79 | 1016.0 |
| 20260903074521 | 65 | 130 | 1.7 | 5.2 | 0.00 | 0.00 | 0.00 | 79 | 1016.0 |
| 20260903074021 | 65 | 129 | 2.6 | 5.2 | 0.00 | 0.00 | 0.00 | 79 | 1016.0 |
| 20260903073541 | 65 | 139 | 0.9 | 5.2 | 0.00 | 0.00 | 0.00 | 79 | 1016.0 |
| 20260903073021 | 65 | 136 | 1.7 | 5.2 | 0.00 | 0.00 | 0.00 | 79 | 1016.0 |
| 20260903072520 | 65 | 135 | 2.6 | 6.1 | 0.00 | 0.00 | 0.00 | 78 | 1016.0 |
| 20260903072022 | 65 | 133 | 2.6 | 7.8 | 0.00 | 0.00 | 0.00 | 78 | 1016.2 |
| 20260903071520 | 65 | 142 | 1.7 | 5.2 | 0.00 | 0.00 | 0.00 | 79 | 1016.3 |
| 20260903071021 | 65 | 129 | 1.7 | 5.2 | 0.00 | 0.00 | 0.00 | 79 | 1016.5 |
| 20260903070521 | 65 | 142 | 1.7 | 3.5 | 0.00 | 0.00 | 0.00 | 79 | 1016.5 |
| 20260903070021 | 65 | 135 | 0.9 | 2.6 | 0.00 | 0.00 | 0.00 | 79 | 1016.6 |
| 20260903065521 | 65 | 126 | 1.7 | 2.6 | 0.00 | 0.00 | 0.00 | 79 | 1016.7 |
| 20260903065020 | 65 | 151 | 0.9 | 2.6 | 0.00 | 0.00 | 0.00 | 79 | 1016.9 |
| 20260903064520 | 65 | 170 | 0.0 | 1.7 | 0.00 | 0.00 | 0.00 | 79 | 1017.0 |
| 20260903064020 | 65 | 169 | 0.0 | 1.7 | 0.00 | 0.00 | 0.00 | 79 | 1017.2 |
| 20260903063520 | 65 | 204 | 0.9 | 1.7 | 0.00 | 0.00 | 0.00 | 78 | 1017.3 |
| 20260903063044 | 65 | 209 | 0.9 | 1.7 | 0.00 | 0.00 | 0.00 | 78 | 1017.4 |
| 20260903062521 | 65 | 197 | 0.9 | 2.6 | 0.00 | 0.00 | 0.00 | 78 | 1017.4 |
| 20260903062021 | 65 | 133 | 0.9 | 2.6 | 0.00 | 0.00 | 0.00 | 78 | 1017.4 |
| 20260903061521 | 65 | 134 | 0.9 | 6.1 | 0.00 | 0.00 | 0.00 | 78 | 1017.4 |
| 20260903061020 | 65 | 155 | 1.7 | 6.1 | 0.00 | 0.00 | 0.00 | 78 | 1017.7 |
| 20260903060520 | 65 | 146 | 1.7 | 6.1 | 0.00 | 0.00 | 0.00 | 78 | 1017.7 |
| 20260903060022 | 65 | 148 | 1.7 | 6.1 | 0.00 | 0.00 | 0.00 | 78 | 1017.8 |
| 20260903055522 | 65 | 127 | 1.7 | 5.2 | 0.00 | 0.00 | 0.00 | 78 | 1018.0 |
| 20260903055021 | 65 | 147 | 1.7 | 5.2 | 0.00 | 0.00 | 0.00 | 78 | 1018.2 |
| 20260903054521 | 65 | 142 | 1.7 | 5.2 | 0.00 | 0.00 | 0.00 | 78 | 1018.3 |
| 20260903054021 | 65 | 167 | 0.9 | 6.1 | 0.00 | 0.00 | 0.00 | 78 | 1018.4 |
| 20260903053521 | 65 | 130 | 1.7 | 3.5 | 0.00 | 0.00 | 0.00 | 78 | 1018.3 |
| 20260903053021 | 65 | 151 | 1.7 | 5.2 | 0.00 | 0.00 | 0.00 | 79 | 1018.2 |
| 20260903052520 | 65 | 128 | 0.9 | 5.2 | 0.00 | 0.00 | 0.00 | 79 | 1018.2 |
| 20260903052020 | 65 | 152 | 1.7 | 6.1 | 0.00 | 0.00 | 0.00 | 79 | 1018.2 |
| 20260903051522 | 65 | 161 | 2.6 | 6.1 | 0.00 | 0.00 | 0.00 | 79 | 1018.2 |
| 20260903051042 | 65 | 132 | 1.7 | 7.8 | 0.00 | 0.00 | 0.00 | 80 | 1018.2 |
| 20260903050541 | 65 | 134 | 2.6 | 6.1 | 0.00 | 0.00 | 0.00 | 81 | 1018.4 |
| 20260903045521 | 65 | 176 | 0.9 | 3.5 | 0.00 | 0.00 | 0.00 | 81 | 1018.8 |
| 20260903045021 | 65 | 219 | 0.9 | 3.5 | 0.00 | 0.00 | 0.00 | 82 | 1018.7 |
| 20260903044601 | 65 | 211 | 0.9 | 2.6 | 0.00 | 0.00 | 0.00 | 81 | 1018.5 |
| 20260903044020 | 65 | 163 | 0.9 | 3.5 | 0.00 | 0.00 | 0.00 | 81 | 1018.5 |
| 20260903043540 | 65 | 175 | 0.9 | 3.5 | 0.00 | 0.00 | 0.00 | 81 | 1018.5 |
| 20260903043020 | 65 | 124 | 0.9 | 5.2 | 0.00 | 0.00 | 0.00 | 81 | 1018.5 |
| 20260903042521 | 65 | 132 | 2.6 | 6.1 | 0.00 | 0.00 | 0.00 | 81 | 1018.6 |
| 20260903042041 | 65 | 129 | 0.9 | 2.6 | 0.00 | 0.00 | 0.00 | 81 | 1018.5 |
| 20260903041521 | 65 | 142 | 0.9 | 1.7 | 0.00 | 0.00 | 0.00 | 81 | 1018.7 |
| 20260903041021 | 65 | 143 | 1.7 | 6.1 | 0.00 | 0.00 | 0.00 | 81 | 1018.7 |
| 20260903040521 | 65 | 159 | 0.9 | 3.5 | 0.00 | 0.00 | 0.00 | 81 | 1018.7 |
| 20260903040020 | 65 | 154 | 0.9 | 2.6 | 0.00 | 0.00 | 0.00 | 82 | 1018.6 |
| 20260903035520 | 66 | 144 | 0.9 | 2.6 | 0.00 | 0.00 | 0.00 | 81 | 1018.4 |
| 20260903035040 | 66 | 125 | 0.9 | 3.5 | 0.00 | 0.00 | 0.00 | 81 | 1018.6 |
| 20260903034519 | 66 | 119 | 0.0 | 1.7 | 0.00 | 0.00 | 0.00 | 81 | 1018.6 |
| 20260903034019 | 66 | 128 | 0.9 | 3.5 | 0.00 | 0.00 | 0.00 | 81 | 1018.7 |
| 20260903033521 | 66 | 146 | 1.7 | 6.1 | 0.00 | 0.00 | 0.00 | 81 | 1018.7 |
| 20260903033021 | 66 | 141 | 1.7 | 6.1 | 0.00 | 0.00 | 0.00 | 81 | 1018.9 |
| 20260903032521 | 66 | 181 | 1.7 | 3.5 | 0.00 | 0.00 | 0.00 | 81 | 1019.1 |
| 20260903032040 | 66 | 121 | 0.9 | 2.6 | 0.00 | 0.00 | 0.00 | 82 | 1019.0 |
| 20260903031520 | 66 | 177 | 0.9 | 3.5 | 0.00 | 0.00 | 0.00 | 82 | 1019.1 |
| 20260903031020 | 66 | 115 | 0.9 | 3.5 | 0.00 | 0.00 | 0.00 | 82 | 1019.2 |
| 20260903030520 | 66 | 186 | 0.9 | 2.6 | 0.00 | 0.00 | 0.00 | 82 | 1019.2 |
| 20260903030020 | 66 | 147 | 0.9 | 2.6 | 0.00 | 0.00 | 0.00 | 82 | 1019.2 |
| 20260903025521 | 66 | 189 | 0.0 | 1.7 | 0.00 | 0.00 | 0.00 | 82 | 1019.4 |
| 20260903025041 | 66 | 178 | 0.9 | 2.6 | 0.00 | 0.00 | 0.00 | 82 | 1019.5 |
| 20260903024521 | 66 | 161 | 1.7 | 3.5 | 0.00 | 0.00 | 0.00 | 82 | 1019.5 |
| 20260903024021 | 66 | 172 | 0.9 | 2.6 | 0.00 | 0.00 | 0.00 | 82 | 1019.4 |
| 20260903023520 | 66 | 135 | 0.0 | 0.9 | 0.00 | 0.00 | 0.00 | 82 | 1019.4 |
| 20260903023020 | 66 | 0.0 | 0.9 | 0.00 | 0.00 | 0.00 | 81 | 1019.4 | |
| 20260903022520 | 66 | 136 | 0.0 | 0.9 | 0.00 | 0.00 | 0.00 | 81 | 1019.4 |
| 20260903022020 | 66 | 141 | 0.9 | 2.6 | 0.00 | 0.00 | 0.00 | 81 | 1019.5 |
| 20260903021521 | 66 | 135 | 0.9 | 2.6 | 0.00 | 0.00 | 0.00 | 81 | 1019.3 |
| 20260903021046 | 66 | 134 | 2.6 | 6.1 | 0.00 | 0.00 | 0.00 | 81 | 1019.5 |
| 20260903020521 | 66 | 125 | 1.7 | 6.1 | 0.00 | 0.00 | 0.00 | 81 | 1019.5 |
| 20260903020101 | 66 | 129 | 0.9 | 5.2 | 0.00 | 0.00 | 0.00 | 81 | 1019.7 |
| 20260903015521 | 66 | 176 | 0.9 | 5.2 | 0.00 | 0.00 | 0.00 | 82 | 1019.6 |
| 20260903015040 | 66 | 166 | 0.9 | 5.2 | 0.00 | 0.00 | 0.00 | 82 | 1019.4 |
| 20260903014602 | 66 | 143 | 1.7 | 2.6 | 0.00 | 0.00 | 0.00 | 82 | 1019.5 |
| 20260903014022 | 66 | 129 | 0.9 | 2.6 | 0.00 | 0.00 | 0.00 | 82 | 1019.5 |
| 20260903013521 | 66 | 132 | 0.9 | 2.6 | 0.00 | 0.00 | 0.00 | 83 | 1019.3 |
| 20260903013041 | 66 | 127 | 1.7 | 5.2 | 0.00 | 0.00 | 0.00 | 82 | 1019.2 |
| 20260903012521 | 66 | 137 | 1.7 | 5.2 | 0.00 | 0.00 | 0.00 | 82 | 1019.4 |
| 20260903012041 | 66 | 138 | 0.9 | 2.6 | 0.00 | 0.00 | 0.00 | 83 | 1019.4 |
| 20260903011521 | 66 | 151 | 0.9 | 5.2 | 0.00 | 0.00 | 0.00 | 82 | 1019.5 |
| 20260903011020 | 66 | 134 | 1.7 | 5.2 | 0.00 | 0.00 | 0.00 | 82 | 1019.6 |
| 20260903010520 | 66 | 123 | 2.6 | 5.2 | 0.00 | 0.00 | 0.00 | 82 | 1019.4 |
| 20260903010022 | 66 | 131 | 2.6 | 6.1 | 0.00 | 0.00 | 0.00 | 82 | 1019.6 |
| 20260903005521 | 66 | 130 | 1.7 | 7.0 | 0.00 | 0.00 | 0.00 | 82 | 1019.6 |
| 20260903005021 | 66 | 125 | 1.7 | 8.7 | 0.00 | 0.00 | 0.00 | 82 | 1019.8 |
| 20260903004521 | 66 | 125 | 2.6 | 8.7 | 0.00 | 0.00 | 0.00 | 82 | 1019.5 |
| 20260903004041 | 66 | 138 | 4.3 | 7.8 | 0.00 | 0.00 | 0.00 | 82 | 1019.5 |
| 20260903003525 | 66 | 127 | 1.7 | 5.2 | 0.00 | 0.00 | 0.00 | 82 | 1019.6 |
| 20260903003024 | 66 | 137 | 2.6 | 6.1 | 0.00 | 0.00 | 0.00 | 81 | 1019.5 |
| 20260903002522 | 66 | 129 | 1.7 | 7.0 | 0.00 | 0.00 | 0.00 | 81 | 1019.6 |
| 20260903002021 | 66 | 124 | 2.6 | 7.0 | 0.00 | 0.00 | 0.00 | 80 | 1019.7 |
| 20260903001521 | 66 | 133 | 2.6 | 6.1 | 0.00 | 0.00 | 0.00 | 80 | 1019.8 |
| 20260903001021 | 66 | 119 | 2.6 | 7.8 | 0.00 | 0.00 | 0.00 | 79 | 1020.0 |
| 20260903000520 | 66 | 136 | 1.7 | 5.2 | 0.00 | 0.00 | 0.00 | 79 | 1020.0 |
| 20260903000021 | 66 | 125 | 1.7 | 3.5 | 0.00 | 0.00 | 0.00 | 79 | 1020.1 |
| 20260902235520 | 66 | 137 | 1.7 | 3.5 | 0.00 | 0.00 | 0.00 | 79 | 1020.2 |
| 20260902235042 | 66 | 131 | 0.9 | 2.6 | 0.00 | 0.00 | 0.00 | 79 | 1020.3 |
| 20260902234523 | 66 | 112 | 1.7 | 5.2 | 0.00 | 0.00 | 0.00 | 80 | 1020.2 |
| 20260902234022 | 66 | 144 | 0.9 | 5.2 | 0.00 | 0.00 | 0.00 | 80 | 1020.2 |
| 20260902233521 | 66 | 127 | 0.9 | 2.6 | 0.00 | 0.00 | 0.00 | 79 | 1020.3 |
| 20260902233021 | 66 | 140 | 1.7 | 5.2 | 0.00 | 0.00 | 0.00 | 79 | 1020.3 |
| 20260902232521 | 66 | 136 | 2.6 | 6.1 | 0.00 | 0.00 | 0.00 | 79 | 1020.4 |
| 20260902232021 | 66 | 119 | 2.6 | 6.1 | 0.00 | 0.00 | 0.00 | 79 | 1020.4 |
| 20260902231520 | 67 | 110 | 0.9 | 2.6 | 0.00 | 0.00 | 0.00 | 78 | 1020.3 |